Find SBS 1

NORAD ID: 12065 Int'l Des: 1980-091 Owner: SBS Country: US operational
HEOCIRCULAR

实时位置

正在加载3D地球...

关于 SBS 1

正在加载描述...

即将过境

Passes for default location (London). Set your location on the main map for personalized predictions.

高度历史

Loading altitude history...

两行轨道根数

1 12065U 80091A 26135.01201773 -.00000068 00000-0 00000-0 0 9995
2 12065 10.0512 318.0179 0006290 174.5563 4.0946 0.99815509 46146
Epoch: May 15, 2026 • Age: 29 hours

当前状态

高度 35913.1 km
速度 3.07 km/s
星下点 -9.83°S, 102.55°W
发射日期 Nov 15, 1980
运行时间 45.4 years
类型 other

技术详情

分类 Payload
质量 521.00 kg
干质量 424.00 kg
总质量 1064.00 kg
长度 6.60 m
直径 2.20 m
跨度 6.60 m
形状 Cyl
制造商 HSES
平台类型 HS-376
阶段状态 Unknown Active Status
所有者/国家 SBS/US

Most Searched